This is the latest recevied weather packets stored in our database for station/object KC4GS-13. If no packets are shown the sender has not sent any weather packets the latest 10 day(s).
| Time | Temp. | Humidity | Pressure | Rain* | Wind** | Luminosity | Snow |
|---|---|---|---|---|---|---|---|
| 1788017449 | 28.89° C | 73% | 1022.8 hPa | 0 mm | - | 257 W/m² | - |
| 1788017146 | 28.33° C | 75% | 1022.9 hPa | 0 mm | - | 429 W/m² | - |
| 1788016845 | 28.89° C | 75% | 1022.8 hPa | 0 mm | - | 412 W/m² | - |
| 1788016544 | 28.33° C | 76% | 1022.8 hPa | 0 mm | - | 356 W/m² | - |
| 1788016239 | 27.78° C | 78% | 1022.7 hPa | 0 mm | - | 713 W/m² | - |
| 1788015937 | 27.78° C | 80% | 1022.8 hPa | 0 mm | - | 256 W/m² | - |
| 1788015632 | 27.22° C | 81% | 1022.6 hPa | 0 mm | - | 606 W/m² | - |
| 1788015327 | 26.67° C | 81% | 1022.6 hPa | 0 mm | - | 246 W/m² | - |
| 1788015026 | 26.67° C | 83% | 1022.8 hPa | 0 mm | - | 170 W/m² | - |
| 1788014720 | 26.67° C | 83% | 1022.5 hPa | 0 mm | - | 176 W/m² | - |
| 1788014415 | 26.67° C | 85% | 1022.6 hPa | 0 mm | - | 180 W/m² | - |
| 1788014110 | 26.11° C | 86% | 1022.5 hPa | 0 mm | - | 147 W/m² | - |
| 1788013809 | 26.11° C | 86% | 1022.6 hPa | 0 mm | - | 143 W/m² | - |
| 1788013509 | 25.56° C | 86% | 1022.5 hPa | 0 mm | - | 144 W/m² | - |
| 1788013203 | 26.11° C | 87% | 1022.7 hPa | 0 mm | - | 184 W/m² | - |
| 1788012902 | 25.56° C | 87% | 1022.6 hPa | 0 mm | - | 178 W/m² | - |
| 1788012597 | 25.56° C | 88% | 1022.6 hPa | 0 mm | - | 165 W/m² | - |
| 1788012292 | 25.56° C | 89% | 1022.5 hPa | 0 mm | - | 144 W/m² | - |
| 1788011991 | 25° C | 90% | 1022.6 hPa | 0 mm | - | 108 W/m² | - |
| 1788011685 | 25° C | 91% | 1022.6 hPa | 0 mm | - | 121 W/m² | - |
| 1788011381 | 25° C | 92% | 1022.5 hPa | 0 mm | - | 135 W/m² | - |
| 1788011079 | 25° C | 93% | 1022.7 hPa | 0 mm | - | 118 W/m² | - |
| 1788010775 | 24.44° C | 94% | 1022.7 hPa | 0 mm | - | 99 W/m² | - |
| 1788010473 | 23.89° C | 94% | 1022.5 hPa | 0 mm | - | 105 W/m² | - |
| 1788010169 | 23.89° C | 95% | 1022.5 hPa | 0 mm | - | 117 W/m² | - |
* Rain latest hour (hover to see other rain measurements)
** Current wind speed in m/s (hover to see current wind gust speed)